1517306400.06,47073,9.75,73004.5,-11.13,-12.97,-13.01,0,*6B
1517306401.3,47074,9.75,72998.0,-11.13,-12.97,-12.93,0,*66
1517306402.59,47075,9.75,72992.0,-11.13,-13.01,-13.01,0,*63
1517306403.83,47076,9.75,72990.0,-11.13,-13.23,-13.23,0,*60
1517306405.07,47077,9.75,72976.8,-11.13,-13.15,-13.11,0,*65
1517306406.3,47078,9.75,72962.8,-11.13,-13.15,-13.15,0,*6E
1517306407.59,47079,9.75,72956.0,-11.13,-13.37,-13.29,0,*60
1517306408.83,47080,9.75,72954.5,-11.15,-13.29,-13.23,0,*65
1517306410.06,47081,9.75,72948.8,-11.15,-13.11,-13.01,0,*6F
1517306411.35,47082,9.75,72958.0,-11.13,-13.37,-13.29,0,*64
1517306412.64,47083,9.75,72964.8,-11.13,-13.97,-13.83,0,*6F
1517306413.89,47084,9.75,72966.0,-11.15,-13.51,-13.37,0,*6B
1517306415.12,47085,9.75,72978.8,-11.15,-12.89,-12.83,0,*60
1517306416.39,47086,9.75,72982.3,-11.15,-12.57,-12.53,0,*6D
1517306417.61,47087,9.75,72984.0,-11.15,-12.29,-12.25,0,*64
1517306418.82,47088,9.75,72992.0,-11.15,-12.39,-12.39,0,*67
1517306420.12,47089,9.75,72988.5,-11.13,-12.71,-12.71,0,*60
1517306421.41,47090,9.75,72980.5,-11.13,-12.57,-12.57,0,*68
1517306422.69,47091,9.75,72978.8,-11.13,-12.57,-12.65,0,*68
1517306423.99,47092,9.75,72972.8,-11.13,-12.83,-12.71,0,*67
1517306425.28,47093,9.75,72970.0,-11.13,-12.71,-12.79,0,*63
1517306426.54,47094,9.75,72966.5,-11.11,-12.65,-12.65,0,*6E
1517306427.8,47095,9.75,72970.3,-11.11,-12.61,-12.53,0,*6E
1517306429.04,47096,9.75,72974.0,-11.13,-12.39,-12.29,0,*6F
1517306430.29,47097,9.75,72966.5,-11.11,-12.21,-12.11,0,*6E
1517306431.5,47098,9.75,72996.5,-11.11,-12.25,-12.25,0,*62
1517306432.74,47099,9.75,73002.3,-11.09,-12.25,-12.25,0,*6A
1517306434.03,47100,9.75,73016.3,-11.09,-12.07,-12.07,0,*6B
1517306435.31,47101,9.75,73020.8,-11.05,-11.93,-11.89,0,*6D
1517306436.55,47102,9.75,73032.3,-11.05,-12.03,-12.07,0,*61
1517306437.8,47103,9.75,73026.8,-11.05,-12.15,-12.21,0,*63
1517306439.04,47104,9.75,73028.8,-11.03,-12.03,-12.03,0,*65
1517306440.31,47105,9.75,73032.3,-11.01,-11.97,-11.89,0,*69
1517306441.55,47106,9.75,73034.0,-11.01,-12.11,-12.03,0,*66
1517306442.79,47107,9.75,73032.8,-11.01,-12.53,-12.43,0,*65
1517306444.06,47108,9.75,73024.3,-11.01,-12.57,-12.53,0,*6F
1517306445.27,47109,9.75,73028.8,-11.01,-13.15,-13.11,0,*6E
1517306446.48,47110,9.75,73024.8,-11.01,-13.65,-13.55,0,*61
1517306447.74,47111,9.75,73026.5,-11.01,-14.15,-14.01,0,*66
1517306449.0,47112,9.75,73026.5,-11.03,-13.87,-13.69,0,*62
1517306450.24,47113,9.75,73024.0,-11.01,-12.89,-12.75,0,*62
1517306451.51,47114,9.75,73028.3,-11.01,-12.71,-12.71,0,*66
1517306452.72,47115,9.75,73038.3,-11.01,-13.15,-13.15,0,*67
1517306453.98,47116,9.75,73026.3,-11.03,-13.79,-13.69,0,*67
1517306455.28,47117,9.75,73028.5,-11.03,-14.05,-14.01,0,*63
1517306456.52,47118,9.75,73034.5,-11.03,-14.33,-14.19,0,*60
1517306457.79,47119,9.75,73024.5,-11.09,-14.47,-14.33,0,*60
1517306459.03,47120,9.75,73032.8,-11.05,-13.79,-13.73,0,*6F
1517306460.27,47121,9.75,73026.0,-11.05,-14.61,-14.51,0,*67
1517306461.53,47122,9.75,72970.0,-11.09,-14.61,-14.51,0,*68
1517306462.76,47123,9.75,72938.5,-11.09,-13.73,-13.73,0,*6A
1517306463.99,47124,9.75,72934.0,-11.11,-13.47,-13.33,0,*67
1517306465.26,47125,9.75,72934.0,-11.11,-13.33,-13.33,0,*65
1517306466.5,47126,9.75,72944.8,-11.11,-13.51,-13.37,0,*66
1517306467.75,47127,9.75,72966.0,-11.13,-13.51,-13.51,0,*65
1517306468.97,47128,9.75,72964.8,-11.11,-13.23,-13.19,0,*61
1517306470.18,47129,9.75,72966.0,-11.11,-13.07,-12.93,0,*65
1517306471.4,47130,9.75,72980.3,-11.11,-13.11,-12.97,0,*6E
1517306472.66,47131,9.75,72990.5,-11.11,-12.79,-12.75,0,*6C
1517306473.95,47132,9.75,72990.8,-11.09,-12.79,-12.75,0,*66
1517306475.21,47133,9.75,72988.8,-11.09,-12.89,-12.75,0,*68
1517306476.48,47134,9.75,72988.3,-11.05,-12.83,-12.71,0,*6D
1517306477.7,47135,9.75,72966.8,-11.05,-13.69,-13.55,0,*6E
1517306478.95,47136,9.75,72962.3,-11.05,-13.37,-13.19,0,*6E
1517306480.19,47137,9.75,72908.0,-11.05,-13.43,-13.29,0,*6F
1517306481.45,47138,9.75,72898.5,-11.09,-13.93,-13.83,0,*61
1517306482.69,47139,9.75,72954.8,-11.09,-13.51,-13.51,0,*61
1517306483.94,47140,9.75,72970.0,-11.09,-12.61,-12.47,0,*6B
1517306485.18,47141,9.75,72952.5,-11.05,-12.61,-12.43,0,*62
1517306486.43,47142,9.75,72970.0,-11.05,-12.57,-12.43,0,*64
1517306487.66,47143,9.75,72982.5,-11.09,-12.97,-12.93,0,*68
1517306488.91,47144,9.75,72982.0,-11.03,-12.93,-12.93,0,*61
1517306490.16,47145,9.75,72980.5,-11.05,-13.01,-12.93,0,*6C
1517306491.42,47146,9.75,72988.5,-11.01,-13.01,-12.83,0,*6A
1517306492.67,47147,9.75,73000.3,-11.03,-12.47,-12.29,0,*6A
1517306493.94,47148,9.75,73000.3,-11.03,-12.35,-12.21,0,*68
1517306495.21,47149,9.75,72990.0,-11.03,-12.29,-12.15,0,*63
1517306496.42,47150,9.75,72990.8,-11.01,-12.39,-12.39,0,*66
1517306497.64,47151,9.75,72990.8,-11.01,-12.25,-12.25,0,*67
1517306498.88,47152,9.75,72990.8,-10.99,-12.29,-12.25,0,*68
1517306500.15,47153,9.75,73000.5,-10.97,-11.97,-11.89,0,*64
1517306501.41,47154,9.75,73006.0,-10.97,-11.89,-11.97,0,*63
1517306502.63,47155,9.75,73002.3,-10.97,-12.25,-12.25,0,*6D
1517306503.9,47156,9.75,73006.8,-10.97,-11.97,-11.73,0,*64
1517306505.16,47157,9.75,73004.5,-10.97,-11.89,-11.81,0,*67
1517306506.4,47158,9.75,73000.8,-10.93,-11.59,-11.45,0,*69
1517306507.65,47159,9.75,72998.3,-10.93,-11.51,-11.33,0,*61
1517306508.91,47160,9.75,72994.3,-10.93,-11.63,-11.77,0,*6A
1517306510.18,47161,9.75,72988.3,-10.89,-12.15,-12.11,0,*61
1517306511.4,47162,9.75,72980.8,-10.89,-12.29,-12.29,0,*66
1517306512.7,47163,9.75,72980.3,-10.91,-11.93,-11.81,0,*6D
1517306513.96,47164,9.75,72968.0,-10.89,-12.15,-12.11,0,*64
1517306515.2,47165,9.75,72960.0,-10.89,-12.29,-12.15,0,*6E
1517306516.45,47166,9.75,72954.0,-10.89,-12.29,-12.15,0,*6D
1517306517.69,47167,9.75,72950.5,-10.89,-12.25,-12.11,0,*64
1517306518.96,47168,9.75,72954.3,-10.89,-11.97,-11.89,0,*63
1517306520.24,47169,9.75,72962.0,-10.83,-11.81,-11.73,0,*6A
1517306521.52,47170,9.75,72970.3,-10.87,-12.25,-12.11,0,*6C
1517306522.81,47171,9.75,72982.3,-10.83,-11.93,-11.81,0,*6D
1517306524.11,47172,9.75,72990.0,-10.83,-11.93,-11.93,0,*6D
1517306525.4,47173,9.75,72994.0,-10.83,-11.97,-11.85,0,*6F
1517306526.69,47174,9.75,73000.8,-10.83,-11.85,-11.85,0,*6B
1517306527.98,47175,9.75,73016.5,-10.79,-11.89,-11.81,0,*67
1517306529.27,47176,9.75,73022.3,-10.79,-11.67,-11.59,0,*61
1517306530.54,47177,9.75,73022.3,-10.79,-11.59,-11.45,0,*60
1517306531.84,47178,9.75,73030.0,-10.79,-11.93,-11.89,0,*69
1517306533.11,47179,9.75,73032.8,-10.79,-12.21,-12.07,0,*67
1517306534.32,47180,9.75,73032.5,-10.77,-12.43,-12.43,0,*6B
1517306535.61,47181,9.75,73030.0,-10.79,-12.75,-12.65,0,*65
1517306536.88,47182,9.75,73024.8,-10.79,-12.47,-12.35,0,*62
1517306538.15,47183,9.75,73018.3,-10.79,-12.47,-12.35,0,*63
1517306539.42,47184,9.75,73018.5,-10.79,-12.43,-12.35,0,*60
1517306540.66,47185,9.75,73018.5,-10.79,-12.47,-12.47,0,*60
1517306541.93,47186,9.75,73020.3,-10.79,-12.35,-12.43,0,*62
1517306543.15,47187,9.75,73030.8,-10.77,-12.29,-12.43,0,*60
1517306544.38,47188,9.75,73018.8,-10.77,-12.35,-12.43,0,*62
1517306545.65,47189,9.75,73020.5,-10.79,-12.21,-12.15,0,*6B
1517306546.9,47190,9.75,73012.0,-10.75,-12.29,-12.39,0,*69
1517306548.16,47191,9.75,73014.8,-10.77,-12.61,-12.57,0,*6E
1517306549.41,47192,9.75,73012.8,-10.75,-12.97,-12.89,0,*65
1517306550.64,47193,9.75,73026.5,-10.77,-13.61,-13.51,0,*6A
1517306551.87,47194,9.75,73018.5,-10.77,-13.61,-13.47,0,*6A
1517306553.11,47195,9.75,73016.3,-10.79,-12.47,-12.43,0,*65
1517306554.36,47196,9.75,73016.8,-10.81,-13.33,-13.23,0,*64
1517306555.62,47197,9.75,73006.5,-10.77,-12.75,-12.61,0,*68
1517306556.86,47198,9.75,73004.5,-10.79,-12.47,-12.43,0,*68
1517306558.16,47199,9.75,73004.8,-10.79,-12.07,-11.93,0,*63
1517306559.4,47200,9.75,73004.8,-10.77,-12.29,-12.15,0,*6F
1517306560.66,47201,9.75,73014.3,-10.77,-12.15,-11.93,0,*6C
1517306561.92,47202,9.75,73018.3,-10.77,-11.89,-11.77,0,*63
1517306563.19,47203,9.75,73016.8,-10.75,-12.29,-12.15,0,*6E
1517306564.43,47204,9.75,73012.3,-10.75,-12.39,-12.29,0,*67
1517306565.73,47205,9.75,73016.0,-10.75,-11.97,-11.89,0,*68
1517306566.99,47206,9.75,73018.0,-10.75,-12.03,-11.97,0,*6A
1517306568.21,47207,9.75,73022.8,-10.73,-12.97,-12.89,0,*6C
1517306569.48,47208,9.75,73022.3,-10.73,-12.61,-12.57,0,*69
1517306570.76,47209,9.75,73030.8,-10.73,-12.75,-12.75,0,*6D
1517306572.04,47210,9.75,73042.0,-10.75,-13.01,-13.01,0,*63
1517306573.28,47211,9.75,73034.0,-10.75,-13.43,-13.47,0,*66
1517306574.49,47212,9.75,73018.3,-10.77,-13.65,-13.65,0,*63
1517306575.78,47213,9.75,72996.3,-10.75,-13.37,-13.37,0,*60
1517306577.02,47214,9.75,72978.8,-10.77,-13.01,-12.93,0,*6F
1517306578.26,47215,9.75,72968.3,-10.77,-12.93,-12.79,0,*60
1517306579.52,47216,9.75,72972.3,-10.77,-12.75,-12.65,0,*66
1517306580.75,47217,9.75,72978.8,-10.77,-13.07,-13.01,0,*60
1517306581.95,47218,9.75,72984.0,-10.77,-13.43,-13.47,0,*6D
1517306583.23,47219,9.75,72986.5,-10.79,-13.79,-13.79,0,*66
1517306584.5,47220,9.75,72990.0,-10.79,-13.43,-13.33,0,*6B
1517306585.76,47221,9.75,72996.3,-10.79,-13.07,-13.01,0,*6B
1517306587.02,47222,9.75,72998.5,-10.79,-13.43,-13.29,0,*62
1517306588.29,47223,9.75,73000.3,-10.81,-13.83,-13.79,0,*6D
1517306589.56,47224,9.75,72998.0,-10.81,-13.37,-13.37,0,*6F
1517306590.82,47225,9.75,73004.8,-10.81,-12.79,-12.65,0,*63
1517306592.09,47226,9.75,73004.3,-10.81,-12.65,-12.61,0,*69
1517306593.37,47227,9.75,73006.3,-10.79,-12.65,-12.65,0,*6B
1517306594.65,47228,9.75,73012.8,-10.81,-12.79,-12.71,0,*6B
1517306595.91,47229,9.75,73010.8,-10.81,-12.61,-12.53,0,*63
1517306597.18,47230,9.75,73010.0,-10.81,-12.65,-12.61,0,*6E
1517306598.44,47231,9.75,73008.3,-10.81,-12.61,-12.61,0,*6B
1517306599.73,47232,9.75,73010.3,-10.79,-12.65,-12.61,0,*6B
1517306600.99,47233,9.75,73010.0,-10.81,-12.65,-12.65,0,*69
1517306602.26,47234,9.75,73014.5,-10.79,-12.57,-12.47,0,*68
1517306603.55,47235,9.75,73014.8,-10.79,-12.35,-12.15,0,*6A
1517306604.8,47236,9.75,73008.3,-10.79,-12.29,-12.29,0,*6B
1517306606.07,47237,9.75,73010.3,-10.81,-12.79,-12.71,0,*65
1517306607.34,47238,9.75,73008.3,-10.79,-12.61,-12.47,0,*61
1517306608.6,47239,9.75,73006.0,-10.81,-12.71,-12.61,0,*62
1517306609.89,47240,9.75,73000.8,-10.79,-12.61,-12.57,0,*6F
1517306611.18,47241,9.75,72996.3,-10.79,-12.75,-12.65,0,*6A
1517306612.47,47242,9.75,72996.5,-10.79,-12.75,-12.65,0,*69
1517306613.68,47243,9.75,72988.3,-10.77,-12.47,-12.47,0,*67
1517306614.92,47244,9.75,72980.3,-10.77,-12.43,-12.35,0,*61
1517306616.18,47245,9.75,72968.0,-10.77,-12.57,-12.57,0,*61
1517306617.42,47246,9.75,72958.8,-10.77,-12.57,-12.47,0,*63
1517306618.68,47247,9.75,72950.3,-10.77,-12.75,-12.75,0,*63
1517306619.92,47248,9.75,72940.5,-10.77,-12.61,-12.47,0,*68
1517306621.16,47249,9.75,72942.8,-10.77,-12.93,-12.75,0,*65
1517306622.43,47250,9.75,72946.3,-10.75,-13.29,-13.23,0,*6D
1517306623.69,47251,9.75,72948.8,-10.79,-13.29,-13.15,0,*65
1517306624.91,47252,9.75,72954.5,-10.81,-13.19,-13.11,0,*66
1517306626.13,47253,9.75,72960.0,-10.81,-13.19,-13.11,0,*67
1517306627.41,47254,9.75,72978.3,-10.81,-12.71,-12.71,0,*68
1517306628.7,47255,9.75,72984.3,-10.79,-12.65,-12.57,0,*6F
1517306629.97,47256,9.75,72994.8,-10.79,-12.75,-12.47,0,*6C
1517306631.23,47257,9.75,73000.0,-10.79,-12.57,-12.43,0,*69
1517306632.5,47258,9.75,73004.3,-10.79,-12.57,-12.47,0,*62
1517306633.72,47259,9.75,73004.3,-10.81,-13.11,-12.89,0,*65
1517306634.98,47260,9.75,72994.5,-10.79,-13.15,-13.01,0,*6D
1517306636.27,47261,9.75,72978.3,-10.79,-13.33,-13.33,0,*69
1517306637.53,47262,9.75,72972.5,-10.79,-12.89,-12.75,0,*69
1517306638.76,47263,9.75,72974.8,-10.81,-12.97,-12.93,0,*68
1517306640.02,47264,9.75,72980.5,-10.81,-12.61,-12.53,0,*6A
1517306641.29,47265,9.75,72982.0,-10.79,-12.75,-12.89,0,*6E
1517306642.59,47266,9.75,72986.5,-10.79,-12.79,-12.79,0,*6E
1517306643.8,47267,9.75,72986.8,-10.81,-13.51,-13.47,0,*6F
1517306645.02,47268,9.75,72986.5,-10.81,-13.65,-13.65,0,*67
1517306646.31,47269,9.75,72984.8,-10.87,-13.83,-13.87,0,*64
1517306647.56,47270,9.75,72976.5,-10.87,-14.23,-14.15,0,*6D
1517306648.8,47271,9.75,72970.5,-10.87,-14.29,-14.37,0,*66
1517306650.04,47272,9.75,72982.5,-10.89,-14.37,-14.55,0,*60
1517306651.28,47273,9.75,72976.8,-10.89,-14.97,-15.15,0,*6E
1517306652.49,47274,9.75,72964.8,-10.93,-14.33,-14.29,0,*62
1517306653.74,47275,9.75,72988.3,-10.93,-13.87,-13.79,0,*69
1517306655.04,47276,9.75,72940.5,-10.95,-14.47,-14.51,0,*6A
1517306656.33,47277,9.75,72970.3,-10.95,-14.93,-14.97,0,*68
1517306657.63,47278,9.75,72966.0,-10.99,-14.55,-14.83,0,*64
1517306658.92,47279,9.75,72952.0,-10.99,-15.85,-16.27,0,*65
1517306660.15,47280,9.75,72954.0,-11.01,-16.17,-16.45,0,*6F
1517306661.43,47281,9.75,72958.8,-11.03,-16.09,-16.79,0,*6C
1517306662.69,47282,9.75,72956.8,-11.09,-16.41,-17.17,0,*60
1517306663.98,47283,9.75,72958.3,-11.09,-17.17,-17.63,0,*60
1517306665.23,47284,9.75,72914.0,-11.11,-17.41,-17.87,0,*67
1517306666.52,47285,9.75,72924.3,-11.17,-17.07,-17.25,0,*6A
1517306667.78,47286,9.75,72954.3,-11.17,-17.49,-17.55,0,*64
1517306669.05,47287,9.75,72964.8,-11.19,-18.01,-18.01,0,*66
1517306670.32,47288,9.75,72978.8,-11.21,-19.27,-19.07,0,*60
1517306671.55,47289,9.75,73000.8,-11.25,-20.25,-18.65,0,*68
1517306672.81,47290,9.75,72994.3,-11.25,-19.75,-17.63,0,*66
1517306674.06,47291,9.75,73006.0,-11.31,-18.73,-16.65,0,*62
1517306675.3,47292,9.75,72992.5,-11.27,-18.21,-15.89,0,*60
1517306676.55,47293,9.75,72964.5,-11.31,-16.09,-14.69,0,*6D
1517306677.79,47294,9.75,72864.8,-11.31,-14.83,-14.19,0,*6D
1517306679.01,47295,9.75,72884.8,-11.27,-13.93,-13.65,0,*61
1517306680.22,47296,9.75,72834.8,-11.31,-13.69,-13.47,0,*60
1517306681.46,47297,9.75,72938.3,-11.27,-13.79,-13.69,0,*6B
1517306682.72,47298,9.75,72932.8,-11.31,-13.61,-13.61,0,*62
1517306683.95,47299,9.75,72920.5,-11.27,-13.07,-12.97,0,*6C
1517306685.19,47300,9.75,72898.8,-11.27,-13.29,-13.23,0,*6F
1517306686.43,47301,9.75,72878.0,-11.25,-13.43,-13.15,0,*65
1517306687.67,47302,9.75,72856.3,-11.23,-13.37,-13.23,0,*66
1517306688.9,47303,9.75,72850.5,-11.23,-13.51,-13.51,0,*62
1517306690.12,47304,9.75,72862.8,-11.23,-13.23,-13.23,0,*65
1517306691.38,47305,9.75,72872.5,-11.23,-13.61,-13.37,0,*67
1517306692.62,47306,9.75,72856.3,-11.23,-13.33,-13.23,0,*66
1517306693.89,47307,9.75,72852.5,-11.21,-13.33,-13.23,0,*65
1517306695.13,47308,9.75,72864.0,-11.19,-13.51,-13.37,0,*60
1517306696.4,47309,9.75,72876.0,-11.21,-13.33,-13.23,0,*6B
1517306697.66,47310,9.75,72868.0,-11.21,-13.47,-13.33,0,*61
1517306698.93,47311,9.75,72882.5,-11.19,-13.61,-13.61,0,*68
1517306700.2,47312,9.75,72894.3,-11.19,-13.61,-13.61,0,*6B
1517306701.46,47313,9.75,72916.5,-11.21,-13.65,-13.61,0,*65
1517306702.7,47314,9.75,72918.5,-11.19,-13.65,-13.61,0,*69
1517306703.99,47315,9.75,72922.5,-11.21,-13.33,-13.33,0,*67
1517306705.21,47316,9.75,72938.0,-11.19,-13.51,-13.47,0,*68
1517306706.44,47317,9.75,72950.5,-11.21,-13.47,-13.47,0,*65
1517306707.69,47318,9.75,72974.3,-11.17,-13.19,-13.19,0,*6F
1517306708.91,47319,9.75,72980.8,-11.19,-13.07,-12.93,0,*6C
1517306710.15,47320,9.75,72980.8,-11.19,-12.93,-12.79,0,*6E
1517306711.42,47321,9.75,72978.8,-11.19,-12.75,-12.65,0,*6A
1517306712.72,47322,9.75,72982.0,-11.17,-12.71,-12.71,0,*66
1517306713.96,47323,9.75,72984.3,-11.17,-13.07,-12.97,0,*6F
1517306715.17,47324,9.75,72984.3,-11.15,-13.15,-13.11,0,*66
1517306716.41,47325,9.75,72986.0,-11.17,-13.19,-13.07,0,*6E
1517306717.61,47326,9.75,72996.5,-11.15,-13.15,-13.15,0,*60
1517306718.9,47327,9.75,73000.3,-11.17,-13.33,-13.33,0,*63
1517306720.16,47328,9.75,73000.3,-11.17,-13.15,-13.01,0,*69
1517306721.42,47329,9.75,72996.5,-11.17,-13.43,-13.33,0,*6A
1517306722.69,47330,9.75,73002.8,-11.17,-13.69,-13.61,0,*6D
1517306723.99,47331,9.75,73000.0,-11.17,-14.01,-14.01,0,*64
1517306725.24,47332,9.75,72998.0,-11.17,-14.15,-14.15,0,*67
1517306726.48,47333,9.75,72998.0,-11.17,-14.29,-14.19,0,*65
1517306727.78,47334,9.75,73010.3,-11.17,-14.05,-14.05,0,*61
1517306729.02,47335,9.75,73002.8,-11.19,-13.61,-13.51,0,*6D
1517306730.23,47336,9.75,73002.0,-11.19,-13.11,-13.07,0,*6A
1517306731.44,47337,9.75,72994.3,-11.19,-13.11,-13.07,0,*6B
1517306732.66,47338,9.75,72984.8,-11.19,-13.11,-13.11,0,*63
1517306733.89,47339,9.75,72984.0,-11.19,-13.19,-13.19,0,*62
1517306735.1,47340,9.75,72984.5,-11.19,-13.07,-13.11,0,*6B
1517306736.33,47341,9.75,72984.0,-11.19,-13.19,-13.19,0,*6D
1517306737.54,47342,9.75,72990.8,-11.19,-13.11,-13.23,0,*6F
1517306738.78,47343,9.75,73010.5,-11.17,-13.47,-13.55,0,*62
1517306740.0,47344,9.75,73014.8,-11.19,-13.51,-13.47,0,*6F
1517306741.26,47345,9.75,73000.3,-11.19,-13.37,-13.33,0,*6D
1517306742.51,47346,9.75,73010.3,-11.19,-13.61,-13.51,0,*69
1517306743.78,47347,9.75,73008.8,-11.17,-14.19,-14.01,0,*6C
1517306745.05,47348,9.75,73004.8,-11.17,-14.29,-14.01,0,*60
1517306746.35,47349,9.75,73002.5,-11.17,-13.83,-13.33,0,*60
1517306747.61,47350,9.75,72998.5,-11.17,-13.43,-13.29,0,*6F
1517306748.91,47351,9.75,73000.3,-11.17,-14.05,-14.05,0,*62
1517306750.12,47352,9.75,72990.0,-11.19,-14.11,-14.11,0,*6F
1517306751.36,47353,9.75,72984.3,-11.21,-14.37,-14.33,0,*61
1517306752.66,47354,9.75,72994.8,-11.21,-14.05,-14.05,0,*62
1517306753.92,47355,9.75,72998.5,-11.21,-14.61,-14.75,0,*66
1517306755.17,47356,9.75,72988.0,-11.23,-15.07,-15.39,0,*6F
1517306756.44,47357,9.75,72968.5,-11.25,-15.53,-16.17,0,*66
1517306757.67,47358,9.75,72990.8,-11.25,-15.99,-16.93,0,*63
1517306758.91,47359,9.75,72974.8,-11.27,-17.31,-17.79,0,*65
1517306760.14,47360,9.75,72972.8,-11.31,-17.11,-16.93,0,*6F
1517306761.39,47361,9.75,72976.8,-11.31,-16.83,-16.51,0,*6A
1517306762.65,47362,9.75,72982.5,-11.33,-16.97,-16.23,0,*6B
1517306763.92,47363,9.75,72966.5,-11.33,-15.75,-15.43,0,*60
1517306765.21,47364,9.75,72956.5,-11.33,-15.35,-15.01,0,*65
1517306766.45,47365,9.75,72956.3,-11.33,-15.07,-15.07,0,*63
1517306767.71,47366,9.75,72958.0,-11.35,-15.01,-14.93,0,*6C
1517306768.93,47367,9.75,72952.5,-11.35,-15.25,-15.53,0,*66
1517306770.21,47368,9.75,72972.0,-11.37,-15.49,-15.81,0,*6E
1517306771.47,47369,9.75,72982.5,-11.37,-16.27,-16.37,0,*6A
1517306772.74,47370,9.75,72950.3,-11.37,-17.83,-17.11,0,*68
1517306773.99,47371,9.75,72948.0,-11.39,-18.25,-17.17,0,*62
1517306775.24,47372,9.75,72950.0,-11.43,-17.69,-16.51,0,*68
1517306776.51,47373,9.75,72956.5,-11.43,-16.97,-15.89,0,*6F
1517306777.77,47374,9.75,72952.3,-11.43,-17.25,-15.99,0,*61
1517306779.06,47375,9.75,72944.8,-11.43,-17.07,-15.89,0,*61
1517306780.35,47376,9.75,72948.3,-11.47,-16.69,-16.09,0,*64
1517306781.61,47377,9.75,72936.5,-11.47,-15.75,-15.49,0,*6C
1517306782.85,47378,9.75,72928.5,-11.47,-15.25,-15.07,0,*6C
1517306784.06,47379,9.75,72948.5,-11.49,-14.15,-13.93,0,*6A
1517306785.31,47380,9.75,72862.5,-11.49,-14.23,-14.05,0,*61
1517306786.52,47381,9.75,72848.8,-11.49,-14.89,-14.89,0,*64
1517306787.75,47382,9.75,72860.8,-11.49,-13.61,-13.47,0,*63
1517306789.02,47383,9.75,72880.5,-11.49,-13.37,-13.33,0,*62
1517306790.23,47384,9.75,72890.3,-11.45,-13.65,-13.65,0,*6D
1517306791.5,47385,9.75,72926.0,-11.45,-14.05,-13.97,0,*60
1517306792.75,47386,9.75,72920.8,-11.47,-13.51,-13.51,0,*6D
1517306793.96,47387,9.75,72924.0,-11.45,-13.55,-13.47,0,*6D
1517306795.2,47388,9.75,72948.3,-11.45,-13.01,-12.89,0,*60
1517306796.46,47389,9.75,72948.3,-11.45,-12.75,-12.61,0,*65
1517306797.7,47390,9.75,72984.8,-11.43,-12.43,-12.43,0,*6E
1517306798.91,47391,9.75,72986.8,-11.41,-12.25,-12.29,0,*61
1517306800.13,47392,9.75,72992.0,-11.41,-12.29,-12.39,0,*6F
1517306801.4,47393,9.75,72994.0,-11.39,-12.11,-11.97,0,*6D
1517306802.67,47394,9.75,73014.8,-11.39,-11.67,-11.55,0,*66
1517306803.92,47395,9.75,73016.5,-11.33,-11.45,-11.45,0,*6C
1517306805.17,47396,9.75,73020.8,-11.31,-11.29,-11.19,0,*6E
1517306806.43,47397,9.75,73022.5,-11.27,-11.33,-11.33,0,*6B
1517306807.67,47398,9.75,73024.0,-11.25,-11.23,-11.23,0,*66
1517306808.88,47399,9.75,73030.8,-11.23,-11.19,-11.19,0,*61
1517306810.16,47400,9.75,73034.8,-11.19,-11.77,-11.63,0,*6A
1517306811.43,47401,9.75,73028.0,-11.19,-11.89,-11.89,0,*6E
1517306812.69,47402,9.75,73022.5,-11.15,-11.73,-11.67,0,*64
1517306813.95,47403,9.75,73004.8,-11.17,-12.03,-11.89,0,*63
1517306815.25,47404,9.75,73012.0,-11.13,-11.93,-11.85,0,*66
1517306816.55,47405,9.75,73018.8,-11.13,-11.93,-11.93,0,*60
1517306817.81,47406,9.75,73024.5,-11.11,-12.61,-12.61,0,*61
1517306819.02,47407,9.75,73030.3,-11.11,-13.11,-13.11,0,*60
1517306820.28,47408,9.75,73028.0,-11.13,-13.43,-13.37,0,*6E
1517306821.52,47409,9.75,73004.5,-11.11,-13.73,-13.83,0,*61
1517306822.81,47410,9.75,73000.8,-11.13,-13.83,-13.87,0,*60
1517306824.07,47411,9.75,73008.8,-11.13,-13.79,-13.69,0,*64
1517306825.31,47412,9.75,73016.3,-11.13,-14.23,-14.29,0,*6C
1517306826.58,47413,9.75,73008.0,-11.15,-13.83,-13.83,0,*61
1517306827.87,47414,9.75,72996.3,-11.17,-13.83,-13.83,0,*64
1517306829.11,47415,9.75,72984.3,-11.15,-14.65,-14.55,0,*64
1517306830.39,47416,9.75,72990.5,-11.17,-14.93,-14.93,0,*66
1517306831.63,47417,9.75,72970.3,-11.21,-14.33,-14.11,0,*62
1517306832.87,47418,9.75,72964.8,-11.19,-14.11,-14.05,0,*63
1517306834.11,47419,9.75,72952.3,-11.21,-14.19,-14.11,0,*64
1517306835.41,47420,9.75,72962.3,-11.21,-14.05,-14.05,0,*66
1517306836.71,47421,9.75,72952.8,-11.25,-14.01,-13.97,0,*6B
1517306837.92,47422,9.75,72954.5,-11.23,-13.93,-13.93,0,*66
1517306839.16,47423,9.75,72960.0,-11.23,-13.87,-13.73,0,*6C
1517306840.38,47424,9.75,72958.0,-11.27,-14.23,-14.19,0,*6D
1517306841.65,47425,9.75,72960.3,-11.25,-13.97,-13.93,0,*63
1517306842.89,47426,9.75,72958.5,-11.25,-13.69,-13.55,0,*6B
1517306844.12,47427,9.75,72960.3,-11.25,-13.65,-13.69,0,*69
1517306845.37,47428,9.75,72982.0,-11.25,-13.51,-13.43,0,*69
1517306846.67,47429,9.75,73000.0,-11.25,-14.01,-13.97,0,*63
1517306847.93,47430,9.75,72970.8,-11.27,-14.43,-14.43,0,*61
1517306849.21,47431,9.75,72972.3,-11.27,-13.97,-13.97,0,*60
1517306850.45,47432,9.75,72980.0,-11.31,-13.73,-13.83,0,*6B
1517306851.7,47433,9.75,72974.0,-11.31,-14.47,-14.33,0,*66
1517306852.98,47434,9.75,72986.3,-11.31,-14.05,-14.01,0,*66
1517306854.21,47435,9.75,72982.0,-11.31,-14.15,-14.15,0,*63
1517306855.45,47436,9.75,72984.8,-11.35,-14.43,-14.23,0,*62
1517306856.75,47437,9.75,72988.3,-11.33,-14.01,-13.97,0,*6B
1517306857.99,47438,9.75,72990.3,-11.33,-13.47,-13.43,0,*68
1517306859.23,47439,9.75,72996.3,-11.35,-13.33,-13.19,0,*63
1517306860.47,47440,9.75,73010.5,-11.33,-13.15,-13.11,0,*67
1517306861.7,47441,9.75,73014.5,-11.33,-13.15,-13.15,0,*62
1517306862.93,47442,9.75,73014.3,-11.33,-13.15,-13.15,0,*61
1517306864.17,47443,9.75,73014.0,-11.35,-13.79,-13.73,0,*6C
1517306865.39,47444,9.75,73002.5,-11.35,-13.73,-13.65,0,*66
1517306866.65,47445,9.75,73002.5,-11.35,-13.37,-13.37,0,*60
1517306867.93,47446,9.75,73002.0,-11.33,-13.33,-13.19,0,*6D
1517306869.19,47447,9.75,72996.8,-11.33,-13.29,-13.15,0,*6B
1517306870.44,47448,9.75,73014.0,-11.33,-13.19,-13.19,0,*6B
1517306871.71,47449,9.75,73012.0,-11.33,-13.29,-13.19,0,*69
1517306873.0,47450,9.75,73004.5,-11.33,-13.33,-13.29,0,*69
1517306874.24,47451,9.75,73006.0,-11.33,-13.73,-13.73,0,*63
1517306875.45,47452,9.75,73000.3,-11.35,-13.73,-13.73,0,*66
1517306876.72,47453,9.75,73008.8,-11.33,-13.33,-13.19,0,*69
1517306877.98,47454,9.75,73004.3,-11.33,-13.15,-13.01,0,*63
1517306879.27,47455,9.75,73002.3,-11.33,-13.01,-13.01,0,*67
1517306880.48,47456,9.75,73000.3,-11.35,-13.07,-13.07,0,*62
1517306881.72,47457,9.75,73000.0,-11.33,-13.15,-13.11,0,*61
1517306882.99,47458,9.75,72998.8,-11.33,-13.29,-13.19,0,*69
1517306884.24,47459,9.75,73000.3,-11.35,-13.51,-13.33,0,*69
1517306885.45,47460,9.75,72998.8,-11.31,-13.15,-13.15,0,*63
1517306886.66,47461,9.75,73004.3,-11.31,-13.15,-13.11,0,*66
1517306887.88,47462,9.75,73014.0,-11.31,-13.73,-13.69,0,*6A
1517306889.14,47463,9.75,73022.0,-11.33,-13.11,-13.01,0,*63
1517306890.38,47464,9.75,73022.0,-11.33,-13.11,-12.97,0,*6A
1517306891.66,47465,9.75,73028.0,-11.33,-13.01,-13.01,0,*64
1517306892.93,47466,9.75,73042.5,-11.33,-13.01,-12.97,0,*69
1517306894.2,47467,9.75,73052.0,-11.33,-13.01,-12.97,0,*68
1517306895.42,47468,9.75,73068.0,-11.27,-13.23,-13.15,0,*69
1517306896.66,47469,9.75,73072.8,-11.31,-13.33,-13.43,0,*6D
1517306897.87,47470,9.75,73068.5,-11.31,-13.43,-13.43,0,*62
1517306899.09,47471,9.75,73038.8,-11.31,-13.15,-13.19,0,*6F
1517306900.3,47472,9.75,73030.3,-11.31,-13.69,-13.69,0,*60